Millville, NJ

2:05 AM EDT on July 26, 2017 (GMT -0400)
Millville Municipal

Weather History for KMIV - November, 2013

Change the Weather History Date:

Monday, November 4, 2013

  Actual Average Record
Temperature  
Mean Temperature 40 °F -  
Max Temperature 48 °F 61 °F 82 °F (2015)
Min Temperature 32 °F 41 °F 23 °F (2006)
Degree Days  
Heating Degree Days 25    
Moisture  
Dew Point 25 °F    
Average Humidity 58    
Maximum Humidity 79    
Minimum Humidity 41    
Precipitation  
Precipitation 0.00 in - - ()
Sea Level Pressure  
Sea Level Pressure 30.58 in    
Wind  
Wind Speed 7 mph (NNE)    
Max Wind Speed 14 mph    
Max Gust Speed 20 mph    
Visibility 10 miles    
Events      
Averages and records for this station are not official NWS values.
T = Trace of Precipitation, MM = Missing Value Source: NWS Daily Summary

Daily Weather History Graph

Daily Weather History Graph

Search for Another Location

Airport or City:

Trip Planner

Search our weather history database for the weather conditions in past years. The results will help you decide how hot, cold, wet, or windy it might be!

Date:

Astronomy

Nov. 04, 2013 Rise Set
Actual Time 6:31 AM EST 4:55 PM EST
Civil Twilight 6:03 AM EST 5:23 PM EST
Nautical Twilight 5:31 AM EST 5:55 PM EST
Astronomical Twilight 5:00 AM EST 6:26 PM EST
Moon 7:39 AM EST (11/4) 5:58 PM EST (11/4)
Length of Visible Light 11h 19m
Length of Day
10h 23m
New Moon, 2% of the Moon is Illuminated
Nov 4
New Moon
Nov 10
First Quarter
Nov 17
Full
Nov 25
Last Quarter
Dec 2
New

Hourly Weather History & Observations

Time (EST) Temp. Windchill Dew Point Humidity Pressure Visibility Wind Dir Wind Speed Gust Speed Precip Events Conditions
12:54 AM 33.1 °F 27.7 °F 21.9 °F 64% 30.46 in 10.0 mi North 5.8 mph - N/A   Clear
1:54 AM 34.0 °F 27.2 °F 21.9 °F 61% 30.48 in 10.0 mi North 8.1 mph - N/A   Clear
2:54 AM 33.1 °F 26.9 °F 21.0 °F 61% 30.49 in 10.0 mi North 6.9 mph - N/A   Clear
3:54 AM 32.0 °F 25.6 °F 21.0 °F 64% 30.51 in 10.0 mi North 6.9 mph - N/A   Clear
4:54 AM 33.1 °F 25.5 °F 21.0 °F 61% 30.53 in 10.0 mi NNE 9.2 mph - N/A   Clear
5:54 AM 32.0 °F 24.8 °F 21.0 °F 64% 30.55 in 10.0 mi North 8.1 mph - N/A   Clear
6:54 AM 32.0 °F 24.8 °F 19.9 °F 61% 30.57 in 10.0 mi North 8.1 mph - N/A   Clear
7:54 AM 35.1 °F 25.9 °F 21.0 °F 57% 30.59 in 10.0 mi NNE 13.8 mph 19.6 mph N/A   Clear
8:54 AM 37.9 °F 30.9 °F 21.0 °F 51% 30.62 in 10.0 mi NNE 10.4 mph - N/A   Clear
9:54 AM 42.1 °F 34.9 °F 24.1 °F 49% 30.61 in 10.0 mi NE 13.8 mph - N/A   Clear
10:54 AM 44.1 °F 40.8 °F 24.1 °F 45% 30.62 in 10.0 mi North 5.8 mph - N/A   Clear
11:54 AM 45.0 °F 41.8 °F 24.1 °F 44% 30.60 in 10.0 mi NNE 5.8 mph - N/A   Clear
12:54 PM 46.9 °F - 25.0 °F 42% 30.58 in 10.0 mi Variable 3.5 mph - N/A   Clear
1:54 PM 46.9 °F - 24.1 °F 41% 30.58 in 10.0 mi Variable 5.8 mph - N/A   Clear
2:54 PM 48.0 °F - 26.1 °F 42% 30.58 in 10.0 mi NNE 4.6 mph - N/A   Clear
3:54 PM 46.9 °F - 28.0 °F 48% 30.59 in 10.0 mi East 9.2 mph - N/A   Clear
4:54 PM 44.1 °F 39.5 °F 28.9 °F 55% 30.60 in 10.0 mi East 8.1 mph - N/A   Clear
5:54 PM 43.0 °F 39.5 °F 30.0 °F 60% 30.61 in 10.0 mi ENE 5.8 mph - N/A   Scattered Clouds
6:54 PM 41.0 °F 35.8 °F 30.0 °F 65% 30.61 in 10.0 mi ENE 8.1 mph - N/A   Clear
7:54 PM 39.9 °F 35.8 °F 30.0 °F 68% 30.61 in 10.0 mi NE 5.8 mph - N/A   Clear
8:54 PM 39.9 °F 35.1 °F 30.0 °F 68% 30.61 in 10.0 mi NNE 6.9 mph - N/A   Clear
9:54 PM 39.0 °F 35.7 °F 30.0 °F 70% 30.62 in 10.0 mi NNE 4.6 mph - N/A   Clear
10:54 PM 39.0 °F 36.8 °F 30.0 °F 70% 30.62 in 10.0 mi NNE 3.5 mph - N/A   Clear
11:54 PM 36.0 °F 33.3 °F 30.0 °F 79% 30.62 in 10.0 mi NNW 3.5 mph - N/A   Clear